Dewpoint
31 36 35 27 23 17 16 9 11 24 27 25 23 23 23 22 22 22 21 23 30 30 32 37 41 42 40 38 39 41 42 43 44 44 43 42 43 44 43 44 43 43 43 44
28 36 30 28 25 19 17 11 17 23 25 21 17 18 20 22 23 27 30 28 28 33 34 39 42 42 41 41 41 41 41 41 44 45 45 44 44 45 45 46 44 44 43 44
34 31 30 27 23 21 24 20 20 24 26 23 19 19 21 23 28 30 30 30 31 33 36 39 41 41 42 41 39 40 41 42 43 44 45 46 46 46 45 43 43 43 43 44
30 32 27 26 23 26 22 26 26 25 24 23 19 11 18 26 26 29 31 32 31 33 37 38 39 39 39 41 41 40 41 40 40 41 42 41 42 41 41 42 43 43 42 43
32 30 30 30 29 29 28 30 28 28 27 25 19 23 23 22 25 27 29 31 34 35 36 37 37 37 40 42 42 40 39 39 39 40 40 41 41 42 41 42 41 41 41 42
32 35 34 31 31 30 30 26 26 29 30 24 25 26 27 24 24 26 27 32 34 35 35 35 36 37 40 41 42 40 39 38 38 39 39 39 39 40 40 40 40 40 41 42
29 31 33 34 31 31 30 32 29 25 27 23 27 23 27 26 27 30 28 30 33 34 32 33 35 37 39 39 40 37 37 38 37 38 38 38 38 39 38 38 39 38 39 39
29 21 32 33 32 30 28 27 29 19 22 21 18 14 26 26 28 31 32 33 34 33 32 34 35 37 38 38 38 37 37 37 37 37 37 37 37 38 38 38 38 38 38 38
20 28 34 33 33 31 26 24 21 23 13 11 19 22 21 24 27 31 31 34 34 33 31 33 36 37 37 37 37 37 36 36 36 36 36 35 37 37 37 37 38 38 38 37
17 25 30 33 34 31 28 22 21 25 16 10 16 16 28 26 26 31 32 32 34 35 32 33 35 36 36 37 37 37 36 34 34 35 35 35 36 37 37 37 36 36 36 36
17 16 25 30 29 27 24 22 21 19 15 11 2 23 25 25 29 28 32 34 34 35 31 32 33 33 34 34 35 35 34 34 34 35 34 35 36 36 36 36 36 36 36 35
20 17 23 21 25 26 26 24 18 17 13 11 9 14 11 22 25 26 27 29 34 33 31 30 31 32 32 33 34 33 33 32 32 33 34 34 35 36 35 33 32 31 29 27
23 17 17 15 20 23 23 22 22 17 23 14 5 6 16 23 25 24 24 26 25 29 33 28 28 29 31 32 33 32 32 31 32 32 32 32 33 34 31 27 23 23 23 23
30 17 12 16 14 21 18 20 21 19 21 16 8 3 10 18 23 25 26 26 25 26 26 28 28 26 29 30 32 30 31 31 30 29 28 28 28 28 25 22 22 22 23 23
26 18 16 17 16 13 16 16 22 20 19 13 10 11 15 24 25 25 26 27 26 25 26 26 26 29 28 30 30 30 31 29 28 25 24 24 23 23 22 22 22 22 22 23
26 20 23 21 22 17 15 15 14 17 21 19 18 18 26 26 26 28 29 29 29 30 30 29 28 28 30 31 30 31 32 31 27 26 25 23 20 21 22 22 22 22 22 21
24 23 25 25 27 26 25 26 25 23 21 19 18 23 27 27 28 29 28 28 28 28 29 30 31 30 31 31 31 31 32 31 26 25 23 21 20 21 22 23 22 23 22 21
24 23 25 25 27 20 26 28 26 26 28 26 26 27 28 29 29 29 30 30 29 28 28 29 31 33 33 33 32 32 32 31 29 28 25 23 24 24 24 23 23 23 23 22
25 24 25 25 25 26 26 23 24 25 25 25 26 29 28 31 30 30 30 29 28 29 30 32 34 34 34 34 34 33 33 32 31 29 26 26 27 28 26 26 25 24 23 23
29 27 26 26 24 22 21 25 23 22 22 28 29 29 33 33 27 30 29 30 30 31 33 34 34 34 34 33 32 31 31 31 30 30 29 29 31 30 27 25 24 25 24 22
27 27 25 25 24 26 26 26 26 22 25 32 33 33 33 32 32 30 31 32 32 32 33 34 34 33 32 31 29 29 29 29 30 31 31 32 31 30 28 27 26 25 24 23
26 26 25 26 25 22 28 26 25 32 35 35 36 36 35 31 31 31 31 31 30 29 30 31 31 31 31 31 31 30 29 31 29 27 28 27 25 23 21 23 25 25 24 24
25 27 26 27 27 32 35 34 36 37 37 37 36 32 32 31 29 27 24 22 22 21 22 24 24 25 26 26 26 25 24 24 23 22 21 21 20 19 18 20 22 22 22 22
27 28 27 27 30 32 34 35 36 36 34 30 32 31 28 25 22 20 16 15 14 15 16 17 18 20 21 23 23 21 21 22 22 21 21 21 21 21 20 19 19 20 17 17
30 30 30 29 34 34 35 35 36 31 31 31 27 25 22 21 19 14 11 10 10 10 11 13 14 14 15 17 19 22 22 23 23 22 21 20 20 20 19 19 19 18 18 19
30 29 28 28 34 36 35 33 35 29 29 26 23 22 20 17 15 13 11 10 11 13 14 15 16 15 15 15 16 18 20 20 20 20 21 21 21 21 20 20 20 27 30 32
Lifted_Index
5 4 4 5 5 5 5 4 4 4 5 5 4 4 5 5 5 5 6 7 7 9 10 10 10 10 11 11 11 11 11 10 10 10 10 10 9 9 9 9 9 9 10 10
4 4 4 5 5 5 4 4 4 4 5 5 4 4 4 5 5 5 6 7 8 9 10 10 10 10 10 11 11 11 11 10 10 10 10 10 9 9 8 9 9 9 10 10
4 4 5 5 5 5 4 4 4 4 4 4 4 3 4 4 5 5 6 7 8 9 9 9 10 10 10 10 11 11 11 11 10 10 10 9 9 9 9 9 10 10 10 10
4 5 5 5 5 5 4 5 5 4 4 4 3 3 3 4 4 5 6 7 8 9 9 9 9 9 10 11 11 11 11 10 10 10 10 10 9 9 10 10 10 11 11 11
5 5 5 5 5 5 5 5 5 5 4 3 3 3 3 3 4 4 5 6 8 9 9 9 10 10 11 11 11 11 10 10 10 10 10 10 10 10 10 11 11 11 11 11
5 6 6 6 6 6 6 5 4 4 3 3 3 3 3 3 4 4 5 7 8 9 9 10 10 11 11 11 11 10 10 10 10 10 10 10 10 10 11 11 12 12 12 12
5 5 6 6 6 6 6 5 3 2 2 2 3 3 3 4 5 6 6 7 8 9 9 10 11 11 11 11 10 10 10 10 10 10 10 10 11 11 12 12 12 12 12 12
4 4 6 7 6 6 5 4 3 2 1 2 3 3 4 5 6 6 7 8 8 9 9 10 10 11 10 10 10 10 10 10 10 10 11 11 11 12 12 12 13 13 13 13
4 4 6 7 7 6 5 4 4 2 2 2 2 3 4 5 6 6 7 8 8 8 8 9 9 10 10 10 10 10 10 10 10 11 11 11 11 12 12 13 13 13 13 13
4 4 5 6 7 6 6 5 4 3 2 1 1 3 4 5 6 6 7 7 8 8 8 8 8 9 10 10 10 10 10 10 10 10 11 11 11 12 12 12 13 13 12 13
5 5 4 5 6 6 6 5 4 4 3 2 1 3 4 5 6 6 7 7 7 7 7 8 8 9 10 10 10 10 10 10 10 10 10 11 11 11 12 12 13 13 13 13
6 5 4 4 6 6 6 5 5 4 3 3 2 3 5 6 7 7 7 7 7 7 7 8 8 9 9 10 10 10 10 10 10 10 10 11 11 11 12 12 13 14 14 14
7 5 4 4 5 6 6 5 6 5 4 3 3 3 6 7 8 8 8 8 7 7 7 8 8 9 9 9 10 10 10 10 10 10 10 10 11 11 11 12 13 14 15 15
7 6 4 4 5 6 5 5 6 5 4 3 3 4 6 7 8 8 8 7 7 7 7 8 9 9 9 9 10 10 10 10 10 10 10 10 10 10 11 12 13 14 15 15
7 6 5 5 6 6 6 6 6 5 4 4 4 4 6 7 7 7 7 7 7 7 8 8 9 9 9 9 9 9 10 10 10 9 9 9 9 10 10 11 12 13 14 15
7 6 5 5 6 6 6 5 5 5 4 4 4 4 5 6 6 6 7 7 7 8 8 9 9 9 9 8 8 9 9 9 9 8 8 9 9 9 10 10 11 12 13 13
7 7 6 5 5 5 5 5 5 5 5 5 4 5 5 5 6 6 7 8 8 8 9 9 9 9 8 8 8 8 8 8 8 7 7 8 8 8 9 10 11 11 12 12
7 7 6 5 4 4 5 6 5 5 5 5 5 5 5 6 7 8 9 9 9 9 10 10 10 9 9 8 8 7 7 7 6 6 7 7 7 8 8 9 10 11 11 12
7 6 6 4 4 4 5 6 5 5 5 5 5 6 6 6 7 8 9 10 10 10 11 11 11 10 9 8 8 7 6 6 6 6 6 7 7 8 9 9 10 11 11 12
6 6 5 4 3 4 5 6 5 5 5 6 6 6 6 7 7 8 10 10 11 11 11 11 10 10 9 8 8 7 6 6 6 6 7 8 8 9 10 10 11 11 12 12
6 6 5 4 4 4 5 6 5 5 5 6 7 7 7 7 8 9 10 11 12 12 11 11 10 9 9 8 8 7 7 7 7 8 9 9 10 10 11 11 12 12 12 12
6 5 5 5 4 4 5 6 6 6 6 7 7 8 9 9 11 12 12 13 13 12 12 11 10 10 9 8 8 8 8 9 9 9 10 10 10 10 11 11 12 12 12 12
6 6 5 5 5 5 5 6 6 7 7 8 9 10 11 12 12 13 14 14 14 13 13 12 11 11 10 10 10 9 9 9 9 10 10 10 10 10 10 11 11 11 11 11
6 6 6 5 5 5 6 6 6 7 8 9 10 11 12 13 13 14 14 14 14 13 13 12 12 12 11 11 11 10 10 10 9 9 9 10 10 10 10 10 10 10 10 10
7 6 6 6 6 6 6 6 7 8 10 11 12 12 12 12 13 13 13 13 13 13 12 12 12 12 12 12 11 11 10 10 9 9 9 9 9 9 9 9 9 9 9 9
7 7 6 6 6 6 6 7 8 10 11 12 12 12 12 12 12 12 13 13 12 12 12 11 11 12 12 12 12 11 10 10 10 10 9 9 9 9 8 8 9 8 8 8